• Processing (Info)

  • MPEC 2022-V81 : 2022 UO40

    The following Minor Planet Electronic Circular may be linked-to from your own Web pages, but must not otherwise be redistributed electronically.

    A form allowing access to any MPEC is at the bottom of this page.


    Read MPEC 2022-V80 Read MPEC 2022-V82


    M.P.E.C. 2022-V81                              Issued 2022 November 4, 02:01 UT
    
         The Minor Planet Electronic Circulars contain information on unusual
             minor planets, routine data on comets and natural satellites,
             and occasional editorial announcements.  They are published
        on behalf of Division F of the International Astronomical Union by the
              Minor Planet Center, Smithsonian Astrophysical Observatory,
                              Cambridge, MA 02138, U.S.A.
    			  
                 Prepared using the Tamkin Foundation Computer Network
    
                                  MPC@CFA.HARVARD.EDU
                URL https://www.minorplanetcenter.net/    ISSN 1523-6714
    
                                    2022 UO40                                
    
    
    Observations:
         K22U40O* C2022 10 24.41511502 04 23.614+10 06 45.32         19.1 GVEV081U68
         K22U40O  C2022 10 24.41845702 04 33.836+10 05 48.65         19.1 GVEV081U68
         K22U40O  C2022 10 24.43587402 05 27.010+10 00 53.58         19.1 GVEV081U68
         K22U40O  C2022 10 24.43921602 05 37.224+09 59 57.07         19.1 GVEV081U68
         K22U40O  C2022 10 29.35851604 22 06.154-03 11 35.74         20.44GVEV081G96
         K22U40O  C2022 10 29.36366504 22 09.642-03 11 59.35         20.98GVEV081G96
         K22U40O  C2022 10 29.36881704 22 13.120-03 12 22.39         20.95GVEV081G96
         K22U40O  C2022 10 29.37396704 22 16.619-03 12 45.86         20.87GVEV081G96
         K22U40O  C2022 10 29.52521404 24 07.417-03 23 11.13         21.42GVEV081F51
         K22U40O  C2022 10 29.53796604 24 15.568-03 24 05.91         21.25GVEV081F51
         K22U40O  C2022 10 29.55070204 24 23.658-03 25 00.24         21.19GVEV081F51
         K22U40O  C2022 10 29.56348604 24 31.871-03 25 55.05         21.19GVEV081F51
    
    Observer details:
    F51 Pan-STARRS 1, Haleakala.  Observers J. Bulger, K. Chambers, T. Lowe, A.
        Schultz, I. Smith.  Measurers S. Chastel, J. Fairlamb, M. Huber, Y.
        Ramanjooloo, R. Wainscoat, R. Weryk.  1.8-m Ritchey-Chretien + CCD.
    G96 Mt. Lemmon Survey.  Observer D. C. Fuls.  Measurers E. J. Christensen, D.
        Fay, J. B. Fazekas, D. C. Fuls, A. R. Gibbs, A. D. Grauer, H. Groeller, J.
        K. Hogan, R. A. Kowalski, S. M. Larson, G. J. Leonard, D. Rankin, R. L.
        Seaman, A. Serrano, F. C. Shelly, K. W. Wierzchos.  1.5-m reflector + 10K
        CCD.
    U68 JPL SynTrack Robotic Telescope, Auberry.  Observers N. Saini, C. Zhai, R.
        Trahan, M. Zhan, M. Shao.  0.28-m Reflector + CCD.
    
    Orbital elements:
    2022 UO40                                                Earth MOID = 0.0156 AU
    Epoch 2022 Aug. 9.0 TT = JDT 2459800.5                  Bell                    
    M 338.60590              (2000.0)            P               Q                  
    n   0.32914980     Peri.  166.57120     +0.95528040     -0.28742709             
    a   2.0774966      Node   210.41160     +0.25704443     +0.92328374             
    e   0.5171774      Incl.    7.88706     +0.14617630     +0.25481918             
    P   2.99           H   27.19          G   0.15           U   9                  
    Residuals in seconds of arc
    221024 U68  0.3-  0.1+    221029 G96  0.3+  0.2+    221029 F51  0.3+  0.4-
    221024 U68  0.2-  0.0     221029 G96  0.2+  0.1-    221029 F51  0.1+  0.2-
    221024 U68  0.0   0.1-    221029 G96  0.0   0.1+    221029 F51  0.6-  0.2+
    221024 U68  0.4+  0.0     221029 G96  0.2+  0.1-    221029 F51  0.1+  0.0
    
    Ephemeris:
    2022 UO40                a,e,i = 2.08, 0.52, 8                   q = 1.0031
    Date    TT    R. A. (2000) Decl.     Delta      r    Elong.  Phase     V
    2022 10 05    18 47 46.6 +15 35 14   0.08719 1.0079    92.6    82.5    24.8
    ...
    2022 10 20    21 31 42.0 +21 51 19   0.02125 1.0068   120.2    58.8    21.0
    ...
    2022 10 28    04 01 20.8 -01 05 23   0.03049 1.0199   148.6    30.5    21.0
    ...
    2022 11 03    04 58 54.2 -06 40 48   0.05790 1.0356   137.5    40.3    22.7
    2022 11 04    05 03 19.7 -07 04 40   0.06270 1.0387   137.1    40.6    22.9
    2022 11 05    05 07 03.3 -07 24 18   0.06753 1.0419   136.8    40.7    23.0
    ...
    2022 11 11    05 20 19.5 -08 26 41   0.09706 1.0637   137.5    39.0    23.8
    ...
    2022 11 19    05 26 02.3 -08 32 42   0.1377  1.0991   141.1    34.4    24.5
    ...
    2022 12 04    05 24 23.3 -06 45 42   0.2209  1.1807   149.1    25.4    25.4
    
    M. P. C. Staff               (C) Copyright 2022 MPC           M.P.E.C. 2022-V81
    


    Read MPEC 2022-V80 Read MPEC 2022-V82


    MPEC number:

    Enter an MPEC number in one of the following forms:

    • 1997-B01 (the full form)
    • J97B01 (the packed version of the full form)
    • B01 (the abbreviated form)